This is the latest recevied weather packets stored in our database for station/object KI4MRC. If no packets are shown the sender has not sent any weather packets the latest 10 day(s).
| Time | Temp. | Humidity | Pressure | Rain* | Wind** | Luminosity | Snow |
|---|---|---|---|---|---|---|---|
| 1777739869 | 33.33° C | 58% | 1011.3 hPa | 0 mm | - | 216 W/m² | - |
| 1777739566 | 32.78° C | 59% | 1011.2 hPa | 0 mm | - | 993 W/m² | - |
| 1777739264 | 33.33° C | 59% | 1011.5 hPa | 0 mm | - | 793 W/m² | - |
| 1777738960 | 33.33° C | 60% | 1011.4 hPa | 0 mm | - | 970 W/m² | - |
| 1777738657 | 32.78° C | 60% | 1011.5 hPa | 0 mm | - | 986 W/m² | - |
| 1777738353 | 32.78° C | 59% | 1011.6 hPa | 0 mm | - | 990 W/m² | - |
| 1777738052 | 32.22° C | 60% | 1011.6 hPa | 0 mm | - | 804 W/m² | - |
| 1777737751 | 32.78° C | 61% | 1011.6 hPa | 0 mm | - | 938 W/m² | - |
| 1777737449 | 32.78° C | 59% | 1011.7 hPa | 0 mm | - | 945 W/m² | - |
| 1777737146 | 32.78° C | 59% | 1011.9 hPa | 0 mm | - | 876 W/m² | - |
| 1777736842 | 32.22° C | 62% | 1011.8 hPa | 0 mm | - | 867 W/m² | - |
| 1777736223 | 32.78° C | 58% | 1011.8 hPa | 0 mm | - | 805 W/m² | - |
| 1777735920 | 32.78° C | 59% | 1011.8 hPa | 0 mm | - | 814 W/m² | - |
| 1777735617 | 32.78° C | 61% | 1012 hPa | 0 mm | - | 755 W/m² | - |
| 1777735314 | 32.22° C | 64% | 1011.9 hPa | 0 mm | - | 825 W/m² | - |
| 1777735012 | 31.67° C | 62% | 1011.9 hPa | 0 mm | - | 740 W/m² | - |
| 1777734709 | 31.67° C | 61% | 1012 hPa | 0 mm | - | 809 W/m² | - |
| 1777734407 | 31.67° C | 63% | 1011.9 hPa | 0 mm | - | 785 W/m² | - |
| 1777734103 | 31.67° C | 65% | 1011.9 hPa | 0 mm | - | 762 W/m² | - |
| 1777733799 | 31.11° C | 65% | 1011.9 hPa | 0 mm | - | 706 W/m² | - |
| 1777733496 | 31.11° C | 65% | 1012 hPa | 0 mm | - | 641 W/m² | - |
| 1777733192 | 31.11° C | 65% | 1012 hPa | 0 mm | - | 703 W/m² | - |
| 1777732889 | 31.11° C | 65% | 1011.7 hPa | 0 mm | - | 715 W/m² | - |
| 1777732585 | 31.67° C | 68% | 1011.6 hPa | 0 mm | - | 626 W/m² | - |
| 1777732283 | 31.11° C | 68% | 1011.7 hPa | 0 mm | - | 673 W/m² | - |
* Rain latest hour (hover to see other rain measurements)
** Current wind speed in m/s (hover to see current wind gust speed)